UAE67V OMDB-LOWW

Flight info

Callsign UAE67V
Flight time N/A
Altitude 37000
Route ANVIX L223 TARDI N629 BOTAM Y855 LAKLU/N0500F360 Q204 NALKI G652 TOKRA DCT ALROK DCT BOSOB DCT ITRUX Y511 NAGBO/N0499F380 Y511 PMA Z712 WEJ L677 GESON Q777 RASDA DCT OTHON DCT VAXOS DCT BANRO UG80 IMR UN127 LMO DCT EVIVI L863 OKANA DCT DONIV DCT PARAK DCT BALUX DCT TORNO DCT NATEX NATEX2W
Aircraft A388/J-SADE2E3FGHIJ3J4J5M1RWXY/LB1D1

Departure

Time 2026-05-06 11:11
Airport Dubai International Airport (OMDB)

Arrival

Time N/A
Airport Vienna International Airport (LOWW)
Time Latitude Longitude Altitude Speed Heading
2026-05-06 10:03 25.25136 55.35478 26 ft 0 kts 31°
2026-05-06 10:51 25.25132 55.35476 26 ft 3 kts 31°
2026-05-06 10:51 25.25109 55.35460 28 ft 4 kts 31°
2026-05-06 10:52 25.25086 55.35445 32 ft 4 kts 31°
2026-05-06 10:52 25.25063 55.35430 32 ft 4 kts 31°
2026-05-06 10:52 25.25044 55.35417 32 ft 4 kts 29°
2026-05-06 10:52 25.25021 55.35407 32 ft 4 kts
2026-05-06 10:53 25.25000 55.35410 32 ft 4 kts 334°
2026-05-06 10:53 25.24985 55.35425 26 ft 3 kts 301°
2026-05-06 10:53 25.24971 55.35450 32 ft 4 kts 301°
2026-05-06 10:53 25.24958 55.35473 32 ft 2 kts 301°
2026-05-06 10:54 25.24957 55.35475 32 ft 4 kts 301°
2026-05-06 10:58 25.24957 55.35474 32 ft 0 kts 301°
2026-05-06 10:58 25.24964 55.35463 32 ft 4 kts 301°
2026-05-06 10:58 25.24976 55.35441 32 ft 6 kts 301°
2026-05-06 10:59 25.25000 55.35398 30 ft 7 kts 301°
2026-05-06 10:59 25.25029 55.35346 27 ft 8 kts 302°
2026-05-06 10:59 25.25062 55.35289 29 ft 9 kts 302°
2026-05-06 10:59 25.25100 55.35227 28 ft 10 kts 308°
2026-05-06 11:00 25.25144 55.35164 26 ft 11 kts 308°
2026-05-06 11:00 25.25203 55.35065 29 ft 12 kts 302°
2026-05-06 11:00 25.25231 55.35014 29 ft 12 kts 301°
2026-05-06 11:00 25.25274 55.34938 30 ft 12 kts 302°
2026-05-06 11:01 25.25321 55.34866 30 ft 11 kts 317°
2026-05-06 11:01 25.25393 55.34821 29 ft 13 kts 345°
2026-05-06 11:01 25.25482 55.34822 31 ft 13 kts 18°
2026-05-06 11:01 25.25564 55.34870 30 ft 14 kts 32°
2026-05-06 11:02 25.25649 55.34927 32 ft 15 kts 31°
2026-05-06 11:02 25.25739 55.34986 29 ft 15 kts 31°
2026-05-06 11:02 25.25830 55.35048 29 ft 16 kts 31°
2026-05-06 11:02 25.25924 55.35111 26 ft 16 kts 32°
2026-05-06 11:03 25.26019 55.35175 27 ft 16 kts 31°
2026-05-06 11:03 25.26110 55.35235 27 ft 14 kts 32°
2026-05-06 11:03 25.26129 55.35306 27 ft 11 kts 112°
2026-05-06 11:03 25.26082 55.35392 27 ft 15 kts 122°
2026-05-06 11:04 25.26016 55.35506 27 ft 19 kts 121°
2026-05-06 11:04 25.25943 55.35640 27 ft 22 kts 123°
2026-05-06 11:04 25.25859 55.35788 27 ft 21 kts 121°
2026-05-06 11:04 25.25781 55.35925 27 ft 22 kts 122°
2026-05-06 11:05 25.25696 55.36077 27 ft 24 kts 122°
2026-05-06 11:05 25.25607 55.36234 28 ft 22 kts 122°
2026-05-06 11:05 25.25520 55.36390 27 ft 25 kts 121°
2026-05-06 11:05 25.25440 55.36532 27 ft 22 kts 122°
2026-05-06 11:06 25.25355 55.36685 26 ft 24 kts 122°
2026-05-06 11:06 25.25265 55.36845 27 ft 24 kts 122°
2026-05-06 11:06 25.25192 55.36974 27 ft 18 kts 122°
2026-05-06 11:06 25.25120 55.37102 28 ft 21 kts 121°
2026-05-06 11:07 25.25041 55.37242 28 ft 22 kts 121°
2026-05-06 11:07 25.24957 55.37392 29 ft 24 kts 121°
2026-05-06 11:07 25.24867 55.37552 28 ft 25 kts 122°
2026-05-06 11:07 25.24772 55.37720 28 ft 22 kts 122°
2026-05-06 11:08 25.24698 55.37852 27 ft 9 kts 122°
2026-05-06 11:08 25.24663 55.37915 27 ft 9 kts 109°
2026-05-06 11:08 25.24678 55.37963 28 ft 7 kts 35°
2026-05-06 11:08 25.24719 55.37991 29 ft 7 kts 32°
2026-05-06 11:09 25.24760 55.38019 30 ft 7 kts 32°
2026-05-06 11:09 25.24796 55.38036 30 ft 3 kts 347°
2026-05-06 11:09 25.24804 55.38032 30 ft 0 kts 310°
2026-05-06 11:09 25.24812 55.38020 30 ft 9 kts 301°
2026-05-06 11:10 25.24949 55.37768 30 ft 73 kts 301°
2026-05-06 11:10 25.25326 55.37089 30 ft 131 kts 301°
2026-05-06 11:10 25.25873 55.36107 32 ft 165 kts 303°
2026-05-06 11:10 25.26478 55.34994 311 ft 171 kts 302°
2026-05-06 11:11 25.27092 55.33830 606 ft 178 kts 304°
2026-05-06 11:11 25.27722 55.32666 982 ft 173 kts 302°
2026-05-06 11:11 25.28362 55.31512 1230 ft 182 kts 301°
2026-05-06 11:11 25.29021 55.30291 1502 ft 189 kts 294°
2026-05-06 11:12 25.29235 55.28880 1794 ft 188 kts 259°
2026-05-06 11:12 25.28780 55.27517 2018 ft 195 kts 244°
2026-05-06 11:12 25.28179 55.26140 2138 ft 205 kts 242°
2026-05-06 11:12 25.27545 55.24698 2403 ft 205 kts 242°
2026-05-06 11:13 25.26937 55.23296 2687 ft 206 kts 242°
2026-05-06 11:13 25.26315 55.21845 2816 ft 213 kts 242°
2026-05-06 11:13 25.25657 55.20310 2918 ft 232 kts 243°
2026-05-06 11:13 25.24915 55.18648 3071 ft 250 kts 234°
2026-05-06 11:14 25.23632 55.17292 3289 ft 263 kts 206°
2026-05-06 11:14 25.21871 55.16745 3739 ft 267 kts 180°
2026-05-06 11:14 25.20019 55.16951 4249 ft 269 kts 165°
2026-05-06 11:14 25.18373 55.17919 4869 ft 270 kts 137°
2026-05-06 11:15 25.17279 55.19585 5550 ft 271 kts 119°
2026-05-06 11:15 25.16405 55.21446 6117 ft 275 kts 118°
2026-05-06 11:15 25.15517 55.23315 6725 ft 275 kts 118°
2026-05-06 11:15 25.14614 55.25201 7253 ft 278 kts 119°
2026-05-06 11:16 25.13709 55.27083 7901 ft 279 kts 119°
2026-05-06 11:16 25.12798 55.28976 8564 ft 278 kts 119°
2026-05-06 11:16 25.11879 55.30883 9091 ft 284 kts 118°
2026-05-06 11:16 25.10960 55.32790 9702 ft 285 kts 118°
2026-05-06 11:17 25.10101 55.34786 10237 ft 288 kts 115°
2026-05-06 11:17 25.09276 55.36811 10765 ft 291 kts 115°
2026-05-06 11:17 25.08442 55.38840 11425 ft 290 kts 114°
2026-05-06 11:17 25.07605 55.40870 11823 ft 298 kts 114°
2026-05-06 11:18 25.06741 55.42979 12158 ft 309 kts 113°
2026-05-06 11:18 25.05873 55.45221 12318 ft 325 kts 112°
2026-05-06 11:18 25.04980 55.47574 12479 ft 341 kts 112°
2026-05-06 11:18 25.04045 55.50034 12639 ft 355 kts 112°
2026-05-06 11:19 25.03077 55.52563 13111 ft 360 kts 112°
2026-05-06 11:19 25.02090 55.55089 13736 ft 358 kts 115°
2026-05-06 11:19 25.00871 55.57497 14218 ft 361 kts 121°
2026-05-06 11:19 24.99554 55.59888 14604 ft 367 kts 120°
2026-05-06 11:20 24.98241 55.62310 15085 ft 370 kts 120°
2026-05-06 11:20 24.96920 55.64758 15560 ft 372 kts 120°
2026-05-06 11:20 24.95592 55.67221 16018 ft 375 kts 120°
2026-05-06 11:20 24.94248 55.69697 16484 ft 379 kts 122°
2026-05-06 11:21 24.92711 55.72074 16926 ft 382 kts 126°
2026-05-06 11:21 24.91121 55.74447 17350 ft 385 kts 126°
2026-05-06 11:21 24.89535 55.76842 17816 ft 388 kts 126°
2026-05-06 11:21 24.87954 55.79232 18212 ft 392 kts 126°
2026-05-06 11:22 24.86336 55.81678 18533 ft 396 kts 126°
2026-05-06 11:22 24.84707 55.84136 18960 ft 398 kts 126°
2026-05-06 11:22 24.83062 55.86607 19325 ft 401 kts 126°
2026-05-06 11:22 24.81386 55.89087 19664 ft 405 kts 127°
2026-05-06 11:23 24.79689 55.91582 19961 ft 410 kts 127°
2026-05-06 11:23 24.77902 55.94024 20394 ft 410 kts 133°
2026-05-06 11:23 24.75840 55.96226 20730 ft 413 kts 138°
2026-05-06 11:23 24.73715 55.98378 21086 ft 415 kts 137°
2026-05-06 11:24 24.71591 56.00559 21377 ft 420 kts 137°
2026-05-06 11:24 24.69455 56.02759 21782 ft 422 kts 137°
2026-05-06 11:24 24.67308 56.04972 22106 ft 425 kts 137°
2026-05-06 11:24 24.65149 56.07198 22491 ft 426 kts 137°
2026-05-06 11:25 24.62968 56.09445 22689 ft 433 kts 137°
2026-05-06 11:25 24.60778 56.11701 23155 ft 432 kts 138°
2026-05-06 11:25 24.58570 56.13972 23413 ft 437 kts 138°
2026-05-06 11:25 24.56413 56.16342 23718 ft 439 kts 132°
2026-05-06 11:26 24.54418 56.18903 23932 ft 443 kts 131°
2026-05-06 11:26 24.52438 56.21438 24287 ft 443 kts 132°
2026-05-06 11:26 24.50421 56.24011 24616 ft 444 kts 131°
2026-05-06 11:26 24.48398 56.26586 24855 ft 447 kts 132°
2026-05-06 11:27 24.46358 56.29180 25121 ft 449 kts 132°
2026-05-06 11:27 24.44310 56.31784 25398 ft 451 kts 132°
2026-05-06 11:27 24.42260 56.34390 25729 ft 452 kts 132°
2026-05-06 11:27 24.40190 56.37019 25969 ft 456 kts 132°
2026-05-06 11:28 24.38112 56.39656 26270 ft 458 kts 132°
2026-05-06 11:28 24.36023 56.42307 26539 ft 461 kts 132°
2026-05-06 11:28 24.33921 56.44973 26854 ft 463 kts 132°
2026-05-06 11:28 24.31807 56.47653 27153 ft 465 kts 132°
2026-05-06 11:29 24.29701 56.50366 27446 ft 469 kts 129°
2026-05-06 11:29 24.27769 56.53264 27757 ft 472 kts 127°
2026-05-06 11:29 24.25840 56.56191 28069 ft 475 kts 127°
2026-05-06 11:29 24.23892 56.59132 28364 ft 479 kts 128°
2026-05-06 11:30 24.21916 56.62108 28701 ft 482 kts 128°
2026-05-06 11:30 24.19934 56.65090 29066 ft 485 kts 128°
2026-05-06 11:30 24.17940 56.68088 29415 ft 488 kts 128°
2026-05-06 11:30 24.15959 56.71066 29763 ft 491 kts 128°
2026-05-06 11:31 24.13940 56.74098 30088 ft 494 kts 128°
2026-05-06 11:31 24.11910 56.77146 30408 ft 497 kts 128°
2026-05-06 11:31 24.09863 56.80217 30729 ft 500 kts 128°
2026-05-06 11:31 24.07807 56.83299 31057 ft 503 kts 128°
2026-05-06 11:32 24.05553 56.86218 31328 ft 502 kts 139°
2026-05-06 11:32 24.02846 56.88607 31659 ft 500 kts 150°
2026-05-06 11:32 23.99778 56.90381 31952 ft 497 kts 162°
2026-05-06 11:32 23.96489 56.91485 32262 ft 494 kts 171°
2026-05-06 11:33 23.93115 56.92228 32573 ft 496 kts 173°
2026-05-06 11:33 23.89714 56.92949 32875 ft 499 kts 172°
2026-05-06 11:33 23.86305 56.93741 33203 ft 502 kts 171°
2026-05-06 11:33 23.82893 56.94599 33509 ft 505 kts 171°
2026-05-06 11:34 23.79463 56.95499 33823 ft 507 kts 170°
2026-05-06 11:34 23.76021 56.96419 34106 ft 510 kts 170°
2026-05-06 11:34 23.72562 56.97349 34439 ft 511 kts 170°
2026-05-06 11:34 23.69117 56.98276 34864 ft 509 kts 170°
2026-05-06 11:35 23.65690 56.99197 35340 ft 507 kts 170°
2026-05-06 11:35 23.62278 57.00112 35798 ft 504 kts 170°
2026-05-06 11:35 23.58880 57.01022 36222 ft 503 kts 170°
2026-05-06 11:35 23.55481 57.01931 36676 ft 501 kts 169°
2026-05-06 11:36 23.52093 57.02836 36890 ft 504 kts 169°
2026-05-06 11:36 23.45302 57.04649 36897 ft 501 kts 169°
2026-05-06 11:37 23.38460 57.05959 36897 ft 497 kts 181°
2026-05-06 11:37 23.31681 57.05319 36907 ft 489 kts 196°
2026-05-06 11:38 23.25041 57.03715 36905 ft 490 kts 195°
2026-05-06 11:38 23.18374 57.02151 36912 ft 490 kts 195°
2026-05-06 11:39 23.11718 57.00590 36905 ft 489 kts 195°
2026-05-06 11:39 23.06174 56.99287 36904 ft 489 kts 195°
2026-05-06 11:40 22.99511 56.97722 36900 ft 490 kts 195°
2026-05-06 11:40 22.92844 56.96159 36904 ft 490 kts 195°
2026-05-06 11:41 22.86351 56.94080 36883 ft 484 kts 210°
2026-05-06 11:41 22.83502 56.92161 36884 ft 480 kts 221°
2026-05-06 11:41 22.81079 56.89708 36883 ft 476 kts 231°
2026-05-06 11:41 22.79135 56.86820 36881 ft 474 kts 242°
2026-05-06 11:42 22.77612 56.83661 36872 ft 473 kts 244°
2026-05-06 11:42 22.74581 56.77330 36867 ft 474 kts 244°
2026-05-06 11:43 22.71526 56.71000 36857 ft 474 kts 244°
2026-05-06 11:43 22.68497 56.64717 36857 ft 474 kts 244°
2026-05-06 11:44 22.63921 56.55235 36828 ft 474 kts 243°
2026-05-06 11:44 22.60863 56.48907 36820 ft 474 kts 243°
2026-05-06 11:45 22.57798 56.42574 36821 ft 475 kts 243°
2026-05-06 11:45 22.54731 56.36243 36819 ft 475 kts 243°
2026-05-06 11:46 22.51655 56.29894 36809 ft 476 kts 243°
2026-05-06 11:46 22.48582 56.23555 36815 ft 476 kts 243°
2026-05-06 11:47 22.45501 56.17210 36816 ft 476 kts 243°
2026-05-06 11:47 22.42420 56.10871 36814 ft 476 kts 243°
2026-05-06 11:48 22.39340 56.04544 36811 ft 476 kts 243°
2026-05-06 11:48 22.36251 55.98215 36796 ft 475 kts 243°
2026-05-06 11:49 22.33166 55.91937 36794 ft 475 kts 243°
2026-05-06 11:49 22.30063 55.85627 36785 ft 475 kts 243°
2026-05-06 11:50 22.26963 55.79329 36782 ft 475 kts 243°
2026-05-06 11:50 22.23863 55.73026 36772 ft 475 kts 243°
2026-05-06 11:51 22.20767 55.66716 36767 ft 475 kts 243°
2026-05-06 11:51 22.17706 55.60398 36765 ft 475 kts 246°
2026-05-06 11:52 22.15651 55.53653 36760 ft 474 kts 259°
2026-05-06 11:52 22.14903 55.46602 36759 ft 474 kts 265°
2026-05-06 11:53 22.14329 55.39563 36761 ft 474 kts 264°
2026-05-06 11:53 22.13740 55.32473 36757 ft 474 kts 264°
2026-05-06 11:54 22.13153 55.25389 36751 ft 474 kts 264°
2026-05-06 11:54 22.12563 55.18297 36748 ft 474 kts 264°
2026-05-06 11:55 22.11972 55.11223 36747 ft 474 kts 264°
2026-05-06 11:55 22.11376 55.04128 36745 ft 474 kts 264°
2026-05-06 11:56 22.10777 54.97045 36742 ft 474 kts 264°
2026-05-06 11:56 22.10176 54.89965 36739 ft 474 kts 264°
2026-05-06 11:57 22.09576 54.82931 36734 ft 474 kts 264°
2026-05-06 11:57 22.08968 54.75850 36736 ft 474 kts 264°
2026-05-06 11:58 22.08357 54.68772 36737 ft 473 kts 264°
2026-05-06 11:58 22.07745 54.61701 36732 ft 473 kts 264°
2026-05-06 11:59 22.07130 54.54639 36725 ft 473 kts 264°
2026-05-06 11:59 22.06511 54.47570 36726 ft 473 kts 264°
2026-05-06 12:00 22.05890 54.40513 36730 ft 473 kts 264°
2026-05-06 12:00 22.05266 54.33451 36723 ft 473 kts 264°
2026-05-06 12:01 22.04642 54.26432 36719 ft 473 kts 264°
2026-05-06 12:01 22.04008 54.19329 36719 ft 473 kts 264°
2026-05-06 12:02 22.03377 54.12303 36719 ft 473 kts 264°
2026-05-06 12:02 22.02740 54.05240 36719 ft 474 kts 264°
2026-05-06 12:03 22.02100 53.98172 36730 ft 474 kts 264°
2026-05-06 12:03 22.01458 53.91111 36734 ft 473 kts 264°
2026-05-06 12:04 22.00814 53.84072 36725 ft 472 kts 264°
2026-05-06 12:04 22.00166 53.77027 36720 ft 471 kts 264°
2026-05-06 12:05 21.99518 53.70010 36713 ft 470 kts 264°
2026-05-06 12:05 21.98867 53.62987 36708 ft 470 kts 264°
2026-05-06 12:06 21.98214 53.55981 36710 ft 470 kts 264°
2026-05-06 12:06 21.97559 53.48983 36708 ft 469 kts 264°
2026-05-06 12:07 21.96901 53.41987 36703 ft 470 kts 264°
2026-05-06 12:07 21.96241 53.35011 36707 ft 470 kts 264°
2026-05-06 12:08 21.95575 53.27999 36705 ft 470 kts 264°
2026-05-06 12:08 21.94907 53.20984 36705 ft 471 kts 264°
2026-05-06 12:09 21.94234 53.13963 36706 ft 471 kts 264°
2026-05-06 12:09 21.93559 53.06950 36708 ft 471 kts 264°
2026-05-06 12:10 21.92879 52.99920 36708 ft 471 kts 263°
2026-05-06 12:10 21.92197 52.92897 36703 ft 472 kts 263°
2026-05-06 12:11 21.91512 52.85872 36701 ft 472 kts 263°
2026-05-06 12:11 21.90827 52.78878 36703 ft 472 kts 263°
2026-05-06 12:12 21.90317 52.71795 36703 ft 472 kts 270°
2026-05-06 12:12 21.91035 52.64806 36706 ft 474 kts 281°
2026-05-06 12:13 21.92337 52.57856 36716 ft 474 kts 279°
2026-05-06 12:13 21.93610 52.50895 36717 ft 473 kts 279°
2026-05-06 12:14 21.94885 52.43935 36710 ft 473 kts 279°
2026-05-06 12:14 21.96157 52.36989 36710 ft 473 kts 279°
2026-05-06 12:15 21.97425 52.30044 36707 ft 472 kts 279°
2026-05-06 12:15 21.98686 52.23120 36699 ft 472 kts 279°
2026-05-06 12:16 21.99952 52.16146 36702 ft 472 kts 279°
2026-05-06 12:16 22.01210 52.09198 36703 ft 472 kts 279°
2026-05-06 12:17 22.02466 52.02249 36698 ft 472 kts 279°
2026-05-06 12:17 22.03719 51.95298 36712 ft 472 kts 279°
2026-05-06 12:18 22.04968 51.88351 36711 ft 472 kts 279°
2026-05-06 12:18 22.06207 51.81436 36709 ft 472 kts 279°
2026-05-06 12:19 22.07450 51.74488 36701 ft 472 kts 279°
2026-05-06 12:19 22.08691 51.67535 36703 ft 472 kts 279°
2026-05-06 12:20 22.09718 51.61763 36704 ft 472 kts 279°
2026-05-06 12:20 22.10954 51.54802 36690 ft 472 kts 279°
2026-05-06 12:21 22.12186 51.47849 36702 ft 472 kts 279°
2026-05-06 12:21 22.13415 51.40893 36727 ft 472 kts 279°
2026-05-06 12:22 22.14640 51.33940 36724 ft 471 kts 279°
2026-05-06 12:22 22.15862 51.26985 36715 ft 471 kts 278°
2026-05-06 12:23 22.17079 51.20043 36701 ft 471 kts 278°
2026-05-06 12:23 22.18291 51.13115 36703 ft 470 kts 278°
2026-05-06 12:24 22.19500 51.06182 36700 ft 470 kts 278°
2026-05-06 12:24 22.20705 50.99256 36703 ft 470 kts 278°
2026-05-06 12:25 22.21907 50.92325 36705 ft 470 kts 278°
2026-05-06 12:25 22.23106 50.85395 36737 ft 469 kts 278°
2026-05-06 12:26 22.24302 50.78469 36711 ft 469 kts 278°
2026-05-06 12:26 22.25486 50.71592 36713 ft 468 kts 278°
2026-05-06 12:27 22.26670 50.64693 36712 ft 467 kts 278°
2026-05-06 12:27 22.27852 50.57790 36710 ft 467 kts 278°
2026-05-06 12:28 22.29030 50.50890 36709 ft 467 kts 278°
2026-05-06 12:28 22.30207 50.43979 36710 ft 467 kts 278°
2026-05-06 12:29 22.31382 50.37064 36714 ft 468 kts 278°
2026-05-06 12:29 22.32553 50.30152 36725 ft 468 kts 278°
2026-05-06 12:30 22.33721 50.23243 36716 ft 468 kts 278°
2026-05-06 12:30 22.34884 50.16339 36721 ft 467 kts 278°
2026-05-06 12:31 22.36046 50.09429 36725 ft 467 kts 278°
2026-05-06 12:31 22.37195 50.02571 36721 ft 467 kts 278°
2026-05-06 12:32 22.38349 49.95666 36711 ft 466 kts 278°
2026-05-06 12:32 22.39499 49.88770 36723 ft 466 kts 278°
2026-05-06 12:33 22.40647 49.81869 36718 ft 466 kts 277°
2026-05-06 12:33 22.41791 49.74966 36725 ft 466 kts 277°
2026-05-06 12:34 22.42934 49.68055 36717 ft 467 kts 277°
2026-05-06 12:34 22.44074 49.61144 36720 ft 467 kts 277°
2026-05-06 12:35 22.45213 49.54218 36722 ft 467 kts 277°
2026-05-06 12:35 22.46340 49.47345 36728 ft 468 kts 277°
2026-05-06 12:36 22.47473 49.40415 36727 ft 468 kts 277°
2026-05-06 12:36 22.48605 49.33477 36726 ft 468 kts 277°
2026-05-06 12:37 22.49733 49.26543 36722 ft 468 kts 277°
2026-05-06 12:37 22.50858 49.19607 36740 ft 467 kts 277°
2026-05-06 12:38 22.51978 49.12680 36734 ft 467 kts 277°
2026-05-06 12:38 22.53093 49.05766 36726 ft 466 kts 277°
2026-05-06 12:39 22.54206 48.98848 36727 ft 466 kts 277°
2026-05-06 12:39 22.55307 48.91981 36725 ft 466 kts 277°
2026-05-06 12:40 22.56413 48.85066 36724 ft 466 kts 277°
2026-05-06 12:40 22.57515 48.78154 36730 ft 466 kts 277°
2026-05-06 12:41 22.58615 48.71239 36744 ft 466 kts 277°
2026-05-06 12:41 22.59711 48.64325 36746 ft 466 kts 277°
2026-05-06 12:42 22.60804 48.57414 36741 ft 465 kts 277°
2026-05-06 12:42 22.61886 48.50551 36738 ft 465 kts 277°
2026-05-06 12:43 22.62971 48.43647 36740 ft 465 kts 277°
2026-05-06 12:43 22.64053 48.36746 36736 ft 465 kts 277°
2026-05-06 12:44 22.65133 48.29840 36734 ft 465 kts 277°
2026-05-06 12:44 22.66209 48.22935 36734 ft 465 kts 277°
2026-05-06 12:45 22.67284 48.16031 36752 ft 465 kts 276°
2026-05-06 12:46 22.68889 48.05689 36744 ft 464 kts 276°
2026-05-06 12:46 22.69577 47.98767 36741 ft 461 kts 272°
2026-05-06 12:47 22.70164 47.91847 36742 ft 461 kts 272°
2026-05-06 12:47 22.70753 47.84941 36740 ft 461 kts 272°
2026-05-06 12:48 22.71328 47.78066 36739 ft 461 kts 272°
2026-05-06 12:48 22.71899 47.71158 36745 ft 461 kts 272°
2026-05-06 12:49 22.72469 47.64240 36753 ft 461 kts 272°
2026-05-06 12:49 22.73035 47.57328 36760 ft 461 kts 272°
2026-05-06 12:50 22.73598 47.50412 36770 ft 461 kts 272°
2026-05-06 12:50 22.74161 47.43459 36766 ft 460 kts 272°
2026-05-06 12:51 22.74715 47.36592 36764 ft 460 kts 272°
2026-05-06 12:51 22.75268 47.29682 36774 ft 460 kts 272°
2026-05-06 12:52 22.75819 47.22771 36779 ft 460 kts 272°
2026-05-06 12:52 22.76367 47.15862 36792 ft 460 kts 272°
2026-05-06 12:53 22.76918 47.08946 36794 ft 460 kts 272°
2026-05-06 12:53 22.77465 47.02049 36810 ft 459 kts 272°
2026-05-06 12:54 22.78007 46.95157 36814 ft 459 kts 272°
2026-05-06 12:54 22.78547 46.88269 36805 ft 458 kts 272°
2026-05-06 12:55 22.79082 46.81400 36806 ft 457 kts 272°
2026-05-06 12:55 22.79610 46.74578 36804 ft 456 kts 272°
2026-05-06 12:56 22.80137 46.67727 36821 ft 456 kts 271°
2026-05-06 12:56 22.80662 46.60873 36809 ft 456 kts 271°
2026-05-06 12:57 22.81184 46.54020 36837 ft 456 kts 271°
2026-05-06 12:57 22.81702 46.47169 36863 ft 456 kts 271°
2026-05-06 12:58 22.82218 46.40322 36856 ft 456 kts 271°
2026-05-06 12:58 22.82728 46.33475 36847 ft 455 kts 271°
2026-05-06 12:59 22.83234 46.26625 36860 ft 455 kts 271°
2026-05-06 12:59 22.83737 46.19784 36862 ft 455 kts 271°
2026-05-06 13:00 22.84153 46.14098 36850 ft 455 kts 271°
2026-05-06 13:00 22.84652 46.07243 36858 ft 455 kts 271°
2026-05-06 13:01 22.85148 46.00388 36863 ft 456 kts 271°
2026-05-06 13:01 22.85641 45.93528 36866 ft 456 kts 271°
2026-05-06 13:02 22.86132 45.86669 36890 ft 456 kts 271°
2026-05-06 13:02 22.86615 45.79861 36885 ft 455 kts 271°
2026-05-06 13:03 22.87098 45.73017 36878 ft 455 kts 271°
2026-05-06 13:03 22.87578 45.66184 36889 ft 454 kts 271°
2026-05-06 13:04 22.88053 45.59362 36885 ft 453 kts 271°
2026-05-06 13:04 22.88526 45.52547 36880 ft 453 kts 271°
2026-05-06 13:05 22.88995 45.45738 36882 ft 453 kts 271°
2026-05-06 13:05 22.89460 45.38923 36882 ft 453 kts 271°
2026-05-06 13:06 22.89924 45.32117 36900 ft 452 kts 271°
2026-05-06 13:06 22.90383 45.25320 36905 ft 451 kts 271°
2026-05-06 13:07 22.90839 45.18539 36894 ft 450 kts 271°
2026-05-06 13:07 22.91290 45.11770 36885 ft 449 kts 271°
2026-05-06 13:08 22.91736 45.05053 36886 ft 449 kts 271°
2026-05-06 13:08 22.92179 44.98301 36876 ft 449 kts 270°
2026-05-06 13:09 22.92620 44.91541 36882 ft 449 kts 270°
2026-05-06 13:09 22.93060 44.84768 36889 ft 450 kts 270°
2026-05-06 13:10 22.93496 44.78000 36893 ft 450 kts 270°
2026-05-06 13:10 22.93932 44.71214 36905 ft 451 kts 271°
2026-05-06 13:11 22.95027 44.64477 36901 ft 457 kts 281°
2026-05-06 13:11 22.97042 44.57901 36912 ft 459 kts 284°
2026-05-06 13:12 22.99068 44.51321 36905 ft 459 kts 284°
2026-05-06 13:12 23.01088 44.44751 36902 ft 459 kts 284°
2026-05-06 13:13 23.03108 44.38180 36903 ft 458 kts 283°
2026-05-06 13:13 23.05124 44.31619 36898 ft 457 kts 283°
2026-05-06 13:14 23.07135 44.25064 36887 ft 456 kts 283°
2026-05-06 13:14 23.09126 44.18561 36887 ft 456 kts 283°
2026-05-06 13:15 23.11123 44.12025 36887 ft 455 kts 283°
2026-05-06 13:15 23.13118 44.05489 36888 ft 455 kts 283°
2026-05-06 13:16 23.15109 43.98956 36896 ft 455 kts 283°
2026-05-06 13:16 23.17093 43.92433 36899 ft 455 kts 283°
2026-05-06 13:17 23.19075 43.85906 36900 ft 454 kts 283°
2026-05-06 13:17 23.21050 43.79391 36910 ft 454 kts 283°
2026-05-06 13:18 23.23021 43.72879 36914 ft 453 kts 283°
2026-05-06 13:18 23.24981 43.66391 36916 ft 453 kts 283°
2026-05-06 13:19 23.26949 43.59870 36923 ft 453 kts 282°
2026-05-06 13:19 23.28911 43.53358 36926 ft 452 kts 282°
2026-05-06 13:20 23.30863 43.46863 36933 ft 452 kts 282°
2026-05-06 13:20 23.32803 43.40402 36947 ft 451 kts 282°
2026-05-06 13:21 23.34750 43.33909 36948 ft 450 kts 282°
2026-05-06 13:21 23.36701 43.27386 36948 ft 450 kts 282°
2026-05-06 13:22 23.38624 43.20952 36965 ft 450 kts 282°
2026-05-06 13:22 23.40554 43.14476 36971 ft 449 kts 282°
2026-05-06 13:23 23.42480 43.07997 36981 ft 449 kts 282°
2026-05-06 13:23 23.44403 43.01507 36992 ft 449 kts 281°
2026-05-06 13:24 23.46319 42.95034 36988 ft 449 kts 281°
2026-05-06 13:24 23.48235 42.88552 36987 ft 449 kts 281°
2026-05-06 13:25 23.50145 42.82078 36990 ft 449 kts 281°
2026-05-06 13:25 23.52054 42.75597 36990 ft 449 kts 281°
2026-05-06 13:26 23.53961 42.69122 36986 ft 449 kts 281°
2026-05-06 13:26 23.55868 42.62646 36988 ft 449 kts 281°
2026-05-06 13:27 23.57761 42.56202 36995 ft 449 kts 281°
2026-05-06 13:27 23.59661 42.49725 36994 ft 448 kts 281°
2026-05-06 13:28 23.61555 42.43255 36989 ft 448 kts 281°
2026-05-06 13:28 23.63447 42.36783 36991 ft 447 kts 281°
2026-05-06 13:29 23.65336 42.30309 36985 ft 447 kts 281°
2026-05-06 13:29 23.67216 42.23845 36976 ft 446 kts 281°
2026-05-06 13:30 23.69085 42.17392 36980 ft 446 kts 280°
2026-05-06 13:30 23.70953 42.10933 36976 ft 446 kts 280°
2026-05-06 13:31 23.72819 42.04471 36971 ft 446 kts 280°
2026-05-06 13:31 23.74679 41.98023 36979 ft 445 kts 280°
2026-05-06 13:32 23.76544 41.91568 36968 ft 445 kts 280°
2026-05-06 13:32 23.78406 41.85123 36965 ft 445 kts 280°
2026-05-06 13:33 23.80255 41.78708 36963 ft 445 kts 280°
2026-05-06 13:33 23.82109 41.72259 36951 ft 445 kts 280°
2026-05-06 13:34 23.83963 41.65795 36951 ft 445 kts 280°
2026-05-06 13:34 23.85810 41.59343 36971 ft 445 kts 280°
2026-05-06 13:35 23.87657 41.52875 36989 ft 445 kts 280°
2026-05-06 13:35 23.89492 41.46411 36976 ft 445 kts 280°
2026-05-06 13:36 23.91320 41.39963 36969 ft 444 kts 280°
2026-05-06 13:36 23.93147 41.33511 36972 ft 444 kts 280°
2026-05-06 13:37 23.94978 41.27051 37053 ft 446 kts 280°
2026-05-06 13:37 23.95889 41.23837 37467 ft 445 kts 280°
2026-05-06 13:37 23.96804 41.20607 37864 ft 445 kts 280°
2026-05-06 13:38 23.98628 41.14162 37950 ft 440 kts 280°
2026-05-06 13:38 24.00434 41.07755 37949 ft 442 kts 279°
2026-05-06 13:39 24.02243 41.01324 37943 ft 443 kts 279°
2026-05-06 13:39 24.04055 40.94881 37941 ft 442 kts 279°
2026-05-06 13:40 24.05859 40.88451 37964 ft 442 kts 279°
2026-05-06 13:40 24.07354 40.83118 37953 ft 440 kts 279°
2026-05-06 13:41 24.09144 40.76721 37936 ft 439 kts 279°
2026-05-06 13:41 24.10927 40.70337 37928 ft 438 kts 279°
2026-05-06 13:42 24.12702 40.63970 37915 ft 437 kts 279°
2026-05-06 13:42 24.14471 40.57612 37910 ft 436 kts 279°
2026-05-06 13:43 24.16386 40.51412 37907 ft 442 kts 285°
2026-05-06 13:43 24.19081 40.45441 37935 ft 448 kts 289°
2026-05-06 13:44 24.21985 40.39396 37932 ft 448 kts 289°
2026-05-06 13:44 24.24875 40.33350 37932 ft 448 kts 289°
2026-05-06 13:45 24.27769 40.27297 37930 ft 448 kts 289°
2026-05-06 13:45 24.32109 40.18212 37937 ft 448 kts 289°
2026-05-06 13:46 24.34999 40.12154 37937 ft 448 kts 289°
2026-05-06 13:46 24.37887 40.06091 37933 ft 448 kts 289°
2026-05-06 13:47 24.40770 40.00031 37941 ft 448 kts 289°
2026-05-06 13:47 24.43654 39.93961 37931 ft 448 kts 289°
2026-05-06 13:48 24.46515 39.87931 37918 ft 448 kts 289°
2026-05-06 13:48 24.49390 39.81865 37912 ft 448 kts 289°
2026-05-06 13:49 24.52310 39.75820 37915 ft 451 kts 292°
2026-05-06 13:49 24.56144 39.70224 37913 ft 467 kts 303°
2026-05-06 13:50 24.61097 39.65454 37934 ft 483 kts 315°
2026-05-06 13:50 24.66544 39.61142 37935 ft 482 kts 314°
2026-05-06 13:51 24.71967 39.56797 37943 ft 482 kts 314°
2026-05-06 13:51 24.77392 39.52454 37939 ft 482 kts 314°
2026-05-06 13:52 24.82821 39.48107 37937 ft 482 kts 314°
2026-05-06 13:52 24.88238 39.43765 37938 ft 482 kts 314°
2026-05-06 13:53 24.93577 39.39478 37939 ft 482 kts 314°
2026-05-06 13:53 24.98993 39.35126 37974 ft 482 kts 314°
2026-05-06 13:54 25.04417 39.30763 37942 ft 482 kts 314°
2026-05-06 13:54 25.09835 39.26402 37942 ft 482 kts 314°
2026-05-06 13:55 25.15247 39.22039 37944 ft 481 kts 314°
2026-05-06 13:55 25.20359 39.17435 37911 ft 471 kts 306°
2026-05-06 13:56 25.24624 39.12097 37933 ft 458 kts 297°
2026-05-06 13:56 25.28127 39.06284 37934 ft 453 kts 294°
2026-05-06 13:57 25.31571 39.00426 37927 ft 454 kts 294°
2026-05-06 13:57 25.35012 38.94559 37945 ft 454 kts 294°
2026-05-06 13:58 25.38422 38.88720 37940 ft 454 kts 294°
2026-05-06 13:58 25.41852 38.82836 37915 ft 454 kts 294°
2026-05-06 13:59 25.45262 38.76980 37910 ft 453 kts 294°
2026-05-06 13:59 25.48669 38.71122 37897 ft 452 kts 294°
2026-05-06 14:00 25.52068 38.65269 37884 ft 451 kts 294°
2026-05-06 14:00 25.55467 38.59408 37869 ft 452 kts 294°
2026-05-06 14:01 25.58864 38.53543 37874 ft 453 kts 294°
2026-05-06 14:01 25.62269 38.47657 37883 ft 454 kts 294°
2026-05-06 14:02 25.65676 38.41763 37883 ft 455 kts 294°
2026-05-06 14:02 25.69085 38.35854 37908 ft 456 kts 294°
2026-05-06 14:03 25.72502 38.29928 37907 ft 456 kts 294°
2026-05-06 14:03 25.75917 38.23997 37899 ft 455 kts 294°
2026-05-06 14:04 25.79296 38.18122 37898 ft 455 kts 294°
2026-05-06 14:04 25.82689 38.12212 37893 ft 452 kts 294°
2026-05-06 14:05 25.86071 38.06317 37871 ft 452 kts 294°
2026-05-06 14:05 25.89446 38.00423 37874 ft 451 kts 294°
2026-05-06 14:06 25.92789 37.94578 37923 ft 451 kts 294°
2026-05-06 14:06 25.96156 37.88690 37908 ft 451 kts 294°
2026-05-06 14:07 25.99108 37.82622 37906 ft 441 kts 285°
2026-05-06 14:07 26.01018 37.76217 37921 ft 433 kts 277°
2026-05-06 14:08 26.02022 37.69654 37936 ft 431 kts 273°
2026-05-06 14:08 26.02923 37.63047 37932 ft 433 kts 273°
2026-05-06 14:09 26.03831 37.56426 37939 ft 432 kts 273°
2026-05-06 14:09 26.04725 37.49823 37933 ft 431 kts 273°
2026-05-06 14:10 26.05612 37.43217 37914 ft 432 kts 273°
2026-05-06 14:10 26.06497 37.36595 37922 ft 433 kts 273°
2026-05-06 14:11 26.07377 37.29996 37915 ft 434 kts 273°
2026-05-06 14:11 26.08259 37.23353 37923 ft 434 kts 273°
2026-05-06 14:12 26.09137 37.16709 37910 ft 434 kts 274°
2026-05-06 14:12 26.10012 37.10068 37895 ft 435 kts 274°
2026-05-06 14:13 26.10885 37.03424 37907 ft 435 kts 274°
2026-05-06 14:13 26.11757 36.96755 37905 ft 435 kts 274°
2026-05-06 14:14 26.12624 36.90103 37883 ft 434 kts 274°
2026-05-06 14:14 26.13490 36.83441 37905 ft 434 kts 274°
2026-05-06 14:15 26.14350 36.76796 37904 ft 434 kts 274°
2026-05-06 14:15 26.15208 36.70139 37924 ft 434 kts 274°
2026-05-06 14:16 26.16061 36.63491 37923 ft 433 kts 274°
2026-05-06 14:16 26.16907 36.56884 37920 ft 433 kts 274°
2026-05-06 14:17 26.18544 36.50382 37910 ft 443 kts 288°
2026-05-06 14:17 26.21834 36.44424 37914 ft 457 kts 303°
2026-05-06 14:18 26.26222 36.39298 37909 ft 461 kts 307°
2026-05-06 14:18 26.30672 36.34165 37910 ft 461 kts 307°
2026-05-06 14:19 26.35120 36.29026 37908 ft 460 kts 307°
2026-05-06 14:19 26.39566 36.23888 37917 ft 460 kts 307°
2026-05-06 14:20 26.44011 36.18749 37913 ft 459 kts 307°
2026-05-06 14:20 26.48444 36.13616 37911 ft 459 kts 307°
2026-05-06 14:21 26.52876 36.08478 37907 ft 459 kts 307°
2026-05-06 14:21 26.56555 36.04209 37912 ft 459 kts 307°
2026-05-06 14:22 26.60978 35.99071 37909 ft 459 kts 307°
2026-05-06 14:22 26.65400 35.93927 37913 ft 459 kts 307°
2026-05-06 14:23 26.69820 35.88779 37914 ft 459 kts 307°
2026-05-06 14:23 26.74243 35.83623 37921 ft 459 kts 307°
2026-05-06 14:24 26.78668 35.78457 37921 ft 459 kts 307°
2026-05-06 14:24 26.83087 35.73293 37926 ft 459 kts 307°
2026-05-06 14:25 26.87467 35.68169 37926 ft 459 kts 307°
2026-05-06 14:25 26.91877 35.63004 37927 ft 459 kts 307°
2026-05-06 14:26 26.96288 35.57832 37922 ft 458 kts 307°
2026-05-06 14:26 27.00693 35.52660 37920 ft 458 kts 307°
2026-05-06 14:27 27.05089 35.47490 37924 ft 459 kts 307°
2026-05-06 14:27 27.09522 35.42273 37928 ft 458 kts 307°
2026-05-06 14:28 27.13915 35.37096 37924 ft 458 kts 307°
2026-05-06 14:28 27.18284 35.31942 37927 ft 458 kts 307°
2026-05-06 14:29 27.22698 35.26727 37921 ft 458 kts 307°
2026-05-06 14:29 27.27057 35.21571 37927 ft 458 kts 307°
2026-05-06 14:30 27.31437 35.16385 37925 ft 457 kts 307°
2026-05-06 14:30 27.35813 35.11197 37921 ft 457 kts 307°
2026-05-06 14:31 27.40195 35.05995 37918 ft 457 kts 307°
2026-05-06 14:31 27.44577 35.00787 37920 ft 458 kts 307°
2026-05-06 14:32 27.48949 34.95583 37928 ft 457 kts 307°
2026-05-06 14:32 27.53452 34.90505 37926 ft 460 kts 311°
2026-05-06 14:33 27.58131 34.85584 37921 ft 459 kts 310°
2026-05-06 14:33 27.62784 34.80664 37923 ft 458 kts 310°
2026-05-06 14:34 27.67409 34.75768 37918 ft 458 kts 310°
2026-05-06 14:34 27.72056 34.70844 37938 ft 458 kts 311°
2026-05-06 14:35 27.76694 34.65923 37973 ft 457 kts 311°
2026-05-06 14:35 27.81332 34.60997 37956 ft 457 kts 311°
2026-05-06 14:36 27.85958 34.56078 37958 ft 456 kts 311°
2026-05-06 14:36 27.90583 34.51154 37961 ft 456 kts 311°
2026-05-06 14:37 27.95196 34.46235 37974 ft 455 kts 311°
2026-05-06 14:37 27.99752 34.41271 37964 ft 452 kts 307°
2026-05-06 14:38 28.03769 34.35835 37938 ft 449 kts 304°
2026-05-06 14:38 28.07730 34.30369 37967 ft 449 kts 304°
2026-05-06 14:39 28.11672 34.24921 37969 ft 450 kts 304°
2026-05-06 14:39 28.15647 34.19415 37994 ft 450 kts 304°
2026-05-06 14:40 28.19607 34.13918 37986 ft 450 kts 304°
2026-05-06 14:40 28.23559 34.08422 37993 ft 449 kts 304°
2026-05-06 14:41 28.27506 34.02927 37997 ft 449 kts 304°
2026-05-06 14:41 28.31443 33.97442 37986 ft 448 kts 304°
2026-05-06 14:42 28.35393 33.91925 37987 ft 449 kts 304°
2026-05-06 14:42 28.39317 33.86444 37985 ft 449 kts 304°
2026-05-06 14:43 28.43254 33.80937 37985 ft 449 kts 304°
2026-05-06 14:43 28.47184 33.75432 37975 ft 448 kts 304°
2026-05-06 14:44 28.51109 33.69925 37969 ft 448 kts 304°
2026-05-06 14:45 28.56991 33.61670 37992 ft 448 kts 304°
2026-05-06 14:45 28.60913 33.56169 37985 ft 448 kts 304°
2026-05-06 14:46 28.64834 33.50656 37987 ft 447 kts 304°
2026-05-06 14:46 28.68740 33.45145 37982 ft 447 kts 304°
2026-05-06 14:47 28.72634 33.39644 37984 ft 446 kts 304°
2026-05-06 14:47 28.76528 33.34138 37980 ft 445 kts 304°
2026-05-06 14:48 28.80409 33.28644 37979 ft 445 kts 304°
2026-05-06 14:48 28.84293 33.23136 37972 ft 445 kts 304°
2026-05-06 14:49 28.88177 33.17622 37982 ft 445 kts 304°
2026-05-06 14:49 28.92055 33.12108 37995 ft 446 kts 304°
2026-05-06 14:50 28.95939 33.06580 37994 ft 446 kts 304°
2026-05-06 14:50 28.99818 33.01051 37990 ft 446 kts 304°
2026-05-06 14:51 29.03670 32.95553 37992 ft 446 kts 304°
2026-05-06 14:51 29.07548 32.90010 38007 ft 446 kts 304°
2026-05-06 14:52 29.11419 32.84470 38012 ft 446 kts 304°
2026-05-06 14:52 29.15294 32.78917 38022 ft 446 kts 304°
2026-05-06 14:53 29.19161 32.73369 38021 ft 446 kts 304°
2026-05-06 14:53 29.23032 32.67806 38034 ft 446 kts 304°
2026-05-06 14:54 29.26871 32.62284 38022 ft 446 kts 304°
2026-05-06 14:54 29.30726 32.56712 38023 ft 446 kts 304°
2026-05-06 14:55 29.34561 32.51121 38031 ft 446 kts 304°
2026-05-06 14:55 29.38401 32.45516 38043 ft 447 kts 304°
2026-05-06 14:56 29.42240 32.39912 38059 ft 447 kts 304°
2026-05-06 14:56 29.46076 32.34305 38062 ft 446 kts 304°
2026-05-06 14:57 29.49908 32.28695 38068 ft 446 kts 304°
2026-05-06 14:57 29.53732 32.23090 38064 ft 446 kts 304°
2026-05-06 14:58 29.57559 32.17474 38071 ft 446 kts 304°